Lapse_Rate
7.2 7.6 7.5 7.4 7.4 7.5 7.5 7.6 7.7 7.6 7.5 7.5 7.6 7.8 7.7 7.5 7.6 7.6 7.4 7.0 6.8 7.1 7.3 7.4 7.3 7.4 7.2 7.2 7.2 7.0 6.8 6.9
7.0 7.0 7.2 7.3 7.4 7.6 7.6 7.3 7.5 7.6 7.8 7.9 8.1 7.9 7.8 7.7 7.6 7.7 7.6 7.4 6.8 6.6 7.0 7.2 7.4 7.2 7.2 7.1 7.0 7.0 6.8 6.9
7.4 7.3 7.2 7.2 7.2 7.6 7.8 7.5 7.4 7.3 7.6 8.0 7.9 8.0 7.6 7.4 7.7 7.5 7.4 7.5 7.3 7.2 6.9 6.6 6.9 7.1 7.0 7.1 6.7 6.8 6.9 6.7
7.7 7.6 7.4 7.2 7.2 7.4 7.8 7.9 7.8 7.3 6.8 6.9 7.5 7.3 7.4 7.3 7.9 7.8 7.6 7.3 7.4 7.7 6.7 6.2 6.8 6.8 6.9 7.2 6.9 6.6 6.6 6.6
7.2 7.2 7.2 7.2 7.1 7.2 7.8 8.0 8.0 7.5 7.0 6.6 6.9 7.2 7.4 7.5 7.5 7.8 7.7 7.4 7.5 7.6 7.3 6.8 6.8 6.6 6.5 6.7 6.8 6.6 6.3 6.4
6.5 6.6 6.7 6.8 6.9 7.0 7.4 8.1 8.3 7.9 7.5 7.0 6.7 6.7 6.9 6.7 6.9 7.4 7.6 7.2 6.8 6.8 6.8 6.6 6.3 6.2 5.9 6.4 6.2 6.3 6.3 6.3
5.9 5.9 6.0 5.9 5.9 5.7 5.6 7.2 7.7 8.0 7.4 6.7 6.8 6.6 6.5 6.2 6.3 6.8 7.1 7.0 6.5 6.6 6.6 6.3 6.4 6.0 5.8 5.8 6.1 5.9 6.2 5.9
5.9 5.9 5.9 5.4 5.5 5.6 5.6 5.6 5.8 6.6 7.3 7.2 6.9 6.9 6.2 6.3 5.8 5.7 6.0 6.5 6.2 6.0 6.5 6.5 6.4 6.3 5.8 5.9 5.8 5.7 5.7 5.6
5.8 5.8 6.0 5.8 6.0 6.1 6.3 5.8 5.8 6.4 6.3 6.8 6.9 6.9 6.2 6.0 5.3 5.4 5.8 6.0 5.7 5.8 5.9 6.3 6.4 6.4 6.3 5.9 5.0 4.7 4.8 4.6
6.4 6.3 6.5 6.8 6.8 7.1 7.2 7.0 6.7 6.2 5.5 4.4 6.0 6.4 6.5 6.4 5.8 5.7 5.6 5.9 5.6 5.9 5.9 6.0 6.2 6.1 6.2 6.2 5.8 5.4 5.5 4.7
7.0 6.6 6.6 6.6 6.8 6.8 7.1 7.2 6.7 6.3 5.9 6.1 5.2 5.2 5.2 5.9 5.7 5.5 5.0 5.0 5.0 5.2 5.6 5.9 5.9 6.0 6.0 5.9 5.9 5.5 5.0 4.6
7.0 7.0 6.9 6.6 6.6 6.5 6.7 6.5 6.4 7.0 6.5 6.7 6.5 5.4 5.6 5.1 5.2 5.5 4.8 5.0 4.8 5.3 5.5 5.5 5.4 5.4 5.5 5.4 5.3 5.2 5.2 4.8
7.2 7.4 7.2 6.9 6.5 7.0 6.9 7.0 6.7 6.3 6.1 6.0 6.2 6.4 5.1 5.9 5.2 5.1 4.6 4.8 5.1 5.1 5.1 4.9 5.2 5.3 5.1 4.9 4.9 4.9 4.9 4.9
7.5 7.6 7.3 6.9 6.7 6.5 6.4 7.0 7.5 7.2 7.1 5.9 5.2 5.9 6.3 6.5 5.7 5.7 5.6 5.3 4.9 4.7 4.6 4.6 4.6 4.7 4.8 4.8 4.5 4.5 4.6 4.6
7.5 7.6 7.6 7.5 7.0 6.8 6.7 6.6 6.9 7.3 7.3 6.6 6.0 5.9 5.8 5.5 5.4 5.3 5.3 5.8 5.6 5.1 5.0 5.1 5.1 5.1 4.9 4.8 4.7 4.6 4.5 4.5
7.6 7.5 7.6 7.6 7.6 7.2 6.8 6.8 7.0 7.0 7.1 6.7 6.4 6.5 6.0 5.7 5.4 5.3 5.3 5.1 5.2 5.7 5.7 5.3 5.3 4.8 5.0 4.7 4.7 4.7 4.7 4.8
7.4 7.5 7.5 7.4 7.3 7.2 7.2 6.9 6.9 7.1 7.2 7.2 6.9 6.8 6.6 6.0 5.6 5.0 5.3 5.4 5.7 5.6 5.8 5.7 5.6 5.3 5.2 4.8 4.7 4.5 4.5 4.6
8.0 8.1 8.0 7.9 7.7 7.5 7.5 7.6 7.4 7.3 7.1 7.5 7.7 7.3 7.0 6.7 6.1 6.2 6.0 6.1 6.3 5.8 5.9 5.9 5.8 5.6 5.6 5.4 5.3 5.1 5.0 5.0
7.9 7.7 7.8 7.8 7.7 7.6 7.5 7.4 7.4 7.5 7.4 7.1 6.9 7.0 6.8 6.9 6.5 6.5 6.7 6.6 6.4 6.3 6.2 6.2 6.6 6.1 5.9 5.6 5.5 5.3 5.2 5.2
Wind_Speed
14 17 8 12 12 13 16 16 18 18 12 10 9 9 10 9 11 10 20 20 20 15 9 8 13 7 5 4 7 3 5 7
14 17 16 8 10 16 21 19 19 14 13 14 13 14 12 11 11 14 17 19 19 13 7 8 8 10 11 9 4 8 3 5
17 17 18 16 8 13 17 19 18 17 14 14 12 11 10 11 9 12 16 18 20 13 13 11 11 8 9 10 8 4 3 8
15 16 15 17 18 13 16 18 19 18 17 8 4 5 3 4 8 10 12 14 16 15 13 11 13 11 11 12 10 12 5 5
10 12 15 16 14 18 14 15 16 15 17 14 16 15 11 12 10 9 11 14 14 14 14 14 13 9 11 11 9 9 6 12
8 8 7 7 10 12 15 17 12 14 14 16 14 15 13 8 8 12 13 13 16 15 14 14 13 10 10 11 10 7 6 9
6 3 3 6 9 10 10 16 19 16 14 15 15 19 15 9 10 11 10 10 11 13 13 13 13 12 11 10 10 10 6 5
8 8 7 5 6 7 10 12 15 24 11 10 13 16 18 20 18 14 15 13 11 13 14 12 10 10 9 9 9 8 8 6
8 8 7 6 5 4 5 10 12 14 21 14 8 10 5 4 7 9 11 12 14 17 14 12 11 11 8 8 7 6 7 5
10 9 8 6 4 4 4 6 8 9 7 11 13 6 6 4 5 7 4 2 1 9 12 12 11 11 10 10 8 8 9 7
11 7 9 7 6 1 2 4 5 6 5 1 6 5 4 4 2 4 4 2 6 9 10 11 11 11 12 12 9 9 11 7
12 10 8 8 6 7 5 3 1 2 1 3 4 4 2 5 4 4 2 2 3 4 7 12 13 13 13 13 12 13 14 11
15 13 6 7 9 8 7 7 6 6 5 4 6 4 4 4 4 5 8 5 5 6 6 8 13 14 14 15 14 12 13 12
11 7 6 6 7 8 8 8 9 8 5 5 6 7 6 8 9 10 9 10 11 10 10 11 12 14 14 13 13 13 13 14
6 6 6 5 5 6 6 5 6 7 9 9 8 7 8 7 6 10 10 10 11 11 11 12 12 12 12 12 12 12 11 10
6 5 6 6 6 6 5 5 3 1 4 5 7 6 5 4 5 5 7 10 11 12 11 9 10 10 9 12 11 11 11 10
7 7 6 6 6 7 6 6 4 3 5 1 5 5 5 5 5 5 8 8 10 10 10 11 11 8 13 17 15 11 12 12
6 7 7 7 8 7 7 7 5 4 0 2 3 2 5 6 5 6 6 7 9 11 10 11 11 10 20 20 20 11 12 11
7 7 7 8 6 8 7 7 7 6 5 4 5 5 6 4 5 6 6 6 9 9 9 11 10 7 20 21 19 12 10 11
Wind_Direction
1 350 272 217 221 228 216 199 198 195 199 200 201 200 206 191 189 187 185 188 182 181 188 181 171 161 151 151 156 111 136 144
16 9 352 278 200 204 206 211 209 186 194 195 201 206 200 199 199 185 176 188 185 177 196 168 175 175 173 167 144 146 109 124
12 7 14 360 258 217 219 216 207 202 203 204 210 208 219 213 196 186 188 182 186 186 187 175 182 169 165 168 162 140 122 170
18 12 8 10 4 307 228 222 218 214 209 213 230 172 124 192 203 193 192 187 188 190 187 177 177 176 179 176 167 172 147 196
10 18 18 8 4 3 309 240 228 222 209 195 196 203 199 204 198 200 191 188 192 189 182 175 181 181 179 182 175 170 149 182
350 357 359 12 14 11 13 359 250 229 214 212 202 205 218 208 194 184 185 184 179 182 187 181 178 180 178 173 177 164 168 175
312 313 350 352 358 18 37 7 9 318 220 226 209 218 207 193 195 185 182 182 181 181 180 179 182 181 173 170 174 165 153 151
316 331 335 352 39 17 6 40 14 6 309 249 216 215 217 199 188 195 185 177 182 183 181 179 178 175 167 157 159 161 152 152
306 305 315 326 2 359 18 50 34 28 16 330 329 305 299 300 215 207 201 200 191 178 176 165 157 156 157 150 144 136 136 133
304 308 303 314 321 340 354 45 47 33 35 29 330 13 325 35 5 352 310 94 263 166 160 152 144 141 141 139 135 129 125 122
306 305 303 298 296 306 349 8 66 52 21 62 300 334 16 69 203 162 226 272 201 157 151 138 136 135 135 130 126 124 118 116
290 283 276 300 284 283 273 277 191 152 200 67 16 311 59 203 165 107 31 108 114 147 163 144 138 139 139 131 133 136 131 139
284 284 303 306 303 300 262 222 229 231 228 220 164 215 215 210 136 167 170 169 138 151 154 149 146 148 152 151 156 164 149 153
293 290 292 290 296 298 287 272 222 233 237 265 245 200 213 211 192 186 178 174 160 161 160 166 168 168 168 167 165 163 161 161
314 318 306 304 293 328 343 317 270 230 217 226 241 244 222 228 205 187 189 178 164 168 178 180 178 170 169 168 163 162 161 157
359 351 332 318 319 318 328 325 1 40 217 248 257 285 271 260 242 186 174 175 187 178 170 177 171 172 170 164 160 156 145 136
313 317 313 318 308 301 303 289 308 29 61 271 276 248 243 246 222 199 177 186 179 173 174 162 162 172 169 161 154 152 145 140
290 292 294 295 297 288 293 299 288 297 157 136 119 359 273 226 210 186 184 174 173 174 167 155 170 172 162 159 149 147 145 143
274 278 284 286 287 292 293 291 295 293 286 335 7 354 327 259 205 208 181 168 166 174 167 161 156 161 159 154 141 137 132 135